User: anonymous   Login
Location: Wien
(48.2082°N, 16.3738°E)
Time: 04:27:21
(UTC+01:00)
Language:

DOVE 4 - Orbit

View from above orbital plane
View from above orbital plane
View from above satellite
View from above satellite

Ground track
Ground track

The orbit data is extracted from the following two-line orbital elements,

1 39430U 13066Q   19077.87549844  .00000146  00000-0  35497-4 0  9991
2 39430  97.7346  40.5385 0151133 183.2396 176.7854 14.59207654283215
Epoch (UTC): 18 March 2019 21:00:43
Eccentricity: 0.0151133
inclination: 97.7346°
perigee height: 589 km
apogee height: 802 km
right ascension of ascending node: 40.5385°
argument of perigee: 183.2396°
revolutions per day: 14.59207654
mean anomaly at epoch: 176.7854°
orbit number at epoch: 28321

The dashed part of the orbit path shows where the satellite is in the earth's shadow,  

DLR